Waarnemingen

Advertentie
Mijn weer
Llerena, Spanje (8336): temperatuur & dauwpunt: 07.11.2019 17:00:00 - 13.11.2019 17:00:00 (CET)Llerena, Spanje (8336): windsnelheid & windstoten: 07.11.2019 17:00:00 - 13.11.2019 17:00:00 (CET)Llerena, Spanje (8336): windrichting: 07.11.2019 17:00:00 - 13.11.2019 17:00:00 (CET)Llerena, Spanje (8336): luchtdruk: 07.11.2019 17:00:00 - 13.11.2019 17:00:00 (CET)Llerena, Spanje (8336): zicht: 07.11.2019 17:00:00 - 13.11.2019 17:00:00 (CET)Llerena, Spanje (8336): Zonneschijnduur: 07.11.2019 17:00:00 - 13.11.2019 17:00:00 (CET)Llerena, Spanje (8336): neerslag: 07.11.2019 17:00:00 - 13.11.2019 17:00:00 (CET)
Datum & Tijd tt [°C] td [°C] ff [km/u] ff [kn] fx [km/u] fx [kn] dd ppp [hPa] vv [km] sd [min] rr [mm]
13.11.2019 17:00:00 - - - - - - - - - - -
13.11.2019 16:00:00 16,9 9,3 21 11 30 16 W 1013,8 20 43 0,0
13.11.2019 15:00:00 16,9 9,8 16 9 30 16 W 1013,6 20 38 0,0
13.11.2019 14:00:00 16,1 9,8 21 11 40 22 NW 1014,1 20 35 0,0
13.11.2019 13:00:00 15,1 10,0 27 15 41 22 WNW 1015,0 20 46 -
13.11.2019 12:00:00 14,1 10,3 27 15 39 21 WNW 1015,4 20 30 0,0
13.11.2019 11:00:00 12,9 11,7 26 14 44 24 WNW 1015,0 20 8 0,0
13.11.2019 10:00:00 12,0 11,2 24 13 39 21 W 1014,6 4,5 0 0,4
13.11.2019 09:00:00 11,2 10,4 22 12 41 22 W 1014,3 4,0 0 0,0
13.11.2019 08:00:00 10,8 10,0 29 16 45 24 W 1013,8 3,6 0 0,0
13.11.2019 07:00:00 10,8 9,7 28 15 44 24 W 1013,4 7 0 -
13.11.2019 06:00:00 11,0 9,6 31 17 46 25 W 1013,5 20 0 0,0
13.11.2019 05:00:00 11,0 9,3 28 15 40 22 W 1013,5 20 0 0,0
13.11.2019 04:00:00 10,8 9,0 22 12 39 21 W 1014,6 8 0 0,0
13.11.2019 03:00:00 10,5 9,0 27 14 38 21 W 1014,9 20 0 0,0
13.11.2019 02:00:00 10,5 8,9 25 14 39 21 W 1015,1 8 0 0,0
13.11.2019 01:00:00 10,4 8,8 19 11 34 18 W 1015,7 20 0 -
13.11.2019 00:00:00 10,2 8,7 24 13 41 22 W 1016,6 20 0 0,0
12.11.2019 23:00:00 10,4 8,0 24 13 35 19 W 1016,7 19 0 0,0
12.11.2019 22:00:00 10,3 7,4 23 12 34 19 W 1016,6 20 0 0,0
12.11.2019 21:00:00 10,6 6,4 17 9 28 15 W 1016,9 20 0 0,0
12.11.2019 20:00:00 9,9 5,3 15 8 23 12 W 1017,2 20 0 0,0
12.11.2019 19:00:00 10,6 4,3 16 8 31 17 WNW 1017,2 20 0 -
12.11.2019 18:00:00 12,0 4,5 21 11 35 19 NW 1016,6 20 56 0,0
12.11.2019 17:00:00 13,3 3,9 24 13 39 21 NNW 1016,1 20 60 0,0
12.11.2019 16:00:00 13,7 3,2 26 14 39 21 NW 1016,3 20 60 0,0
12.11.2019 15:00:00 13,6 3,0 25 13 40 21 NW 1016,3 20 60 0,0
12.11.2019 14:00:00 12,5 2,9 26 14 39 21 NW 1017,5 20 60 0,0
12.11.2019 13:00:00 11,8 3,8 22 12 36 20 NNW 1018,1 20 60 -
12.11.2019 12:00:00 11,0 4,8 19 10 35 19 NNW 1018,6 20 60 0,0
12.11.2019 11:00:00 9,7 5,6 18 10 28 15 NW 1019,0 20 60 0,0
12.11.2019 10:00:00 8,1 4,8 19 10 30 16 NNW 1019,7 20 60 0,0
12.11.2019 09:00:00 6,9 4,6 18 10 27 14 NW 1019,6 20 37 0,0
12.11.2019 08:00:00 6,0 4,6 11 6 18 10 WNW 1018,9 20 0 0,0
12.11.2019 07:00:00 6,5 5,0 7 4 16 8 W 1018,5 20 0 -
12.11.2019 06:00:00 6,9 5,6 9 5 16 8 WNW 1018,4 20 0 0,0
12.11.2019 05:00:00 7,1 5,9 8 4 14 7 NW 1018,8 19 0 0,2
12.11.2019 04:00:00 7,2 5,9 5 3 15 8 ZW 1018,8 16 0 0,0
12.11.2019 03:00:00 7,9 6,5 8 4 19 11 NNW 1019,3 18 0 0,0
12.11.2019 02:00:00 8,0 6,7 8 4 16 9 W 1019,0 17 0 0,0
12.11.2019 01:00:00 8,4 6,8 7 4 14 8 W 1019,0 18 0 -
12.11.2019 00:00:00 9,0 7,3 9 5 16 9 NW 1019,3 20 0 0,0
11.11.2019 23:00:00 9,5 7,8 7 4 21 11 W 1018,9 20 0 0,0
11.11.2019 22:00:00 10,5 8,8 18 10 30 16 NW 1018,8 20 0 0,0
11.11.2019 21:00:00 11,6 9,6 16 9 26 14 WNW 1018,0 20 0 0,0
11.11.2019 20:00:00 12,8 11,0 14 8 23 12 WNW 1017,5 20 0 0,0
11.11.2019 19:00:00 13,3 11,6 10 6 20 11 W 1016,6 20 0 -
11.11.2019 18:00:00 13,7 11,8 17 9 29 15 NW 1016,8 20 0 0,0
11.11.2019 17:00:00 14,3 11,7 21 11 33 18 NW 1016,5 20 2 0,0
11.11.2019 16:00:00 14,4 12,1 21 11 35 19 NW 1016,1 20 3 0,0
11.11.2019 15:00:00 13,2 11,6 20 11 35 19 NW 1016,8 20 0 0,0
11.11.2019 14:00:00 12,5 11,4 16 9 29 16 WNW 1017,6 20 0 0,0
11.11.2019 13:00:00 12,1 11,3 18 10 29 16 NW 1018,9 20 0 -
11.11.2019 12:00:00 11,6 11,0 18 10 29 16 WNW 1019,4 4,8 0 0,0
11.11.2019 11:00:00 10,4 9,8 14 8 23 12 W 1019,7 0,6 0 0,0
11.11.2019 10:00:00 9,3 8,5 9 5 16 8 WZW 1020,5 3,8 0 0,0
11.11.2019 09:00:00 8,6 7,8 8 4 13 7 W 1020,7 6 0 0,0
11.11.2019 08:00:00 8,4 7,7 9 5 15 8 WNW 1020,5 0,5 0 0,0
11.11.2019 07:00:00 8,3 7,6 8 5 18 10 W 1020,1 1,8 0 -
11.11.2019 06:00:00 8,2 7,4 9 5 14 8 NW 1020,9 14 0 0,0
11.11.2019 05:00:00 8,1 7,3 10 5 15 8 NW 1020,9 20 0 0,0
11.11.2019 04:00:00 8,0 7,1 9 5 13 7 NW 1021,3 3,2 0 0,2
11.11.2019 03:00:00 7,9 7,0 8 5 19 11 NW 1021,4 6 0 0,4
11.11.2019 02:00:00 7,8 6,7 14 7 26 14 NNW 1022,3 2,6 0 0,2
11.11.2019 01:00:00 7,9 6,4 17 9 34 18 NW 1022,3 16 0 -
11.11.2019 00:00:00 8,2 6,1 19 10 35 19 WNW 1022,4 20 0 0,0
10.11.2019 23:00:00 8,4 6,4 16 9 35 19 NW 1022,3 20 0 0,0
10.11.2019 22:00:00 8,4 6,1 21 11 37 20 NW 1021,8 20 0 0,0
10.11.2019 21:00:00 8,6 5,5 26 14 41 22 NW 1021,6 20 0 0,0
10.11.2019 20:00:00 8,7 5,9 29 16 42 23 NW 1021,5 20 0 0,0
10.11.2019 19:00:00 8,8 5,8 22 12 35 19 NW 1021,6 20 0 -
10.11.2019 18:00:00 8,7 5,9 18 10 25 13 NW 1021,7 20 0 0,0
10.11.2019 17:00:00 8,7 5,5 16 9 33 18 NNW 1021,9 20 12 0,2
10.11.2019 16:00:00 8,9 5,3 18 10 44 24 NNW 1021,9 20 3 0,4
10.11.2019 15:00:00 10,0 3,9 31 17 53 29 NNW 1021,2 20 0 0,0
10.11.2019 14:00:00 11,8 1,5 31 17 55 30 NNW 1020,9 20 34 0,0
10.11.2019 13:00:00 11,7 0,9 32 18 51 28 NNW 1021,4 20 60 -
10.11.2019 12:00:00 11,1 2,7 27 15 48 26 NNW 1022,1 20 60 0,0
10.11.2019 11:00:00 10,2 3,0 30 16 45 25 NNW 1021,9 20 60 0,0
10.11.2019 10:00:00 8,4 5,3 24 13 39 21 NW 1022,5 20 51 0,0
10.11.2019 09:00:00 6,9 4,5 23 12 37 20 NW 1022,6 20 10 0,0
10.11.2019 08:00:00 6,8 4,6 20 11 35 19 NNW 1022,1 20 0 0,0
10.11.2019 07:00:00 6,9 5,3 17 9 36 19 NNW 1021,3 20 0 -
10.11.2019 06:00:00 7,3 5,9 24 13 40 22 NNW 1021,3 16 0 0,0
10.11.2019 05:00:00 7,4 5,3 21 11 35 19 NW 1021,0 19 0 0,0
10.11.2019 04:00:00 7,3 5,0 13 7 28 15 WNW 1021,4 20 0 0,0
10.11.2019 03:00:00 7,8 5,6 21 11 31 17 NW 1021,6 20 0 0,0
10.11.2019 02:00:00 8,4 6,8 22 12 32 18 WNW 1021,3 17 0 0,0
10.11.2019 01:00:00 9,8 7,8 22 12 36 20 WNW 1021,2 20 0 -
10.11.2019 00:00:00 10,6 8,9 20 11 32 17 WNW 1021,4 20 0 0,0
09.11.2019 23:00:00 11,1 9,3 23 12 36 19 W 1021,3 20 0 0,0
09.11.2019 22:00:00 11,0 9,6 21 11 39 21 W 1021,7 10 0 0,0
09.11.2019 21:00:00 11,0 8,9 23 13 37 20 WZW 1021,3 20 0 0,0
09.11.2019 20:00:00 11,0 8,0 22 12 32 17 WZW 1021,6 20 0 0,0
09.11.2019 19:00:00 11,8 7,6 19 11 29 16 W 1021,8 20 0 -
09.11.2019 18:00:00 11,9 6,5 16 9 31 17 W 1021,8 20 6 0,0
09.11.2019 17:00:00 12,8 6,1 18 10 30 16 W 1022,1 20 0 0,0
09.11.2019 16:00:00 13,7 5,6 17 9 30 16 W 1021,9 20 6 0,0
09.11.2019 15:00:00 13,6 5,5 21 11 37 20 WNW 1022,5 20 45 0,0
09.11.2019 14:00:00 13,6 4,5 18 10 35 19 WNW 1023,1 20 60 0,0
09.11.2019 13:00:00 12,4 2,3 15 8 22 12 WNW 1024,1 20 60 -
09.11.2019 12:00:00 10,9 2,5 13 7 21 12 NW 1025,0 20 60 0,0
09.11.2019 11:00:00 10,0 3,2 13 7 26 14 NNW 1025,5 20 60 0,0
09.11.2019 10:00:00 8,6 2,9 13 7 21 12 NW 1025,4 20 60 0,0
09.11.2019 09:00:00 5,2 2,3 9 5 12 7 W 1026,2 20 52 0,0
09.11.2019 08:00:00 3,7 1,5 6 3 10 6 NW 1026,4 20 0 0,0
09.11.2019 07:00:00 4,1 1,5 3 1 14 8 Z 1025,6 20 0 -
09.11.2019 06:00:00 4,8 1,9 10 5 21 11 NW 1025,1 20 0 0,0
09.11.2019 05:00:00 4,9 2,1 15 8 22 12 NW 1025,0 20 0 0,0
09.11.2019 04:00:00 4,7 1,7 10 5 21 12 WNW 1025,2 20 0 0,0
09.11.2019 03:00:00 4,9 2,1 13 7 19 10 NW 1025,5 20 0 0,0
09.11.2019 02:00:00 5,5 1,9 11 6 16 9 NW 1025,7 20 0 0,0
09.11.2019 01:00:00 5,5 1,7 6 3 17 9 W 1025,9 20 0 -
09.11.2019 00:00:00 6,6 2,1 14 7 25 14 WNW 1025,7 20 0 0,0
08.11.2019 23:00:00 6,9 2,3 16 9 24 13 WNW 1025,2 20 0 0,0
08.11.2019 22:00:00 7,0 1,9 14 7 27 15 WNW 1024,9 20 0 0,0
08.11.2019 21:00:00 7,4 1,5 18 10 27 14 WNW 1024,5 20 0 0,0
08.11.2019 20:00:00 7,9 1,1 12 7 21 11 W 1023,9 20 0 0,0
08.11.2019 19:00:00 8,9 0,4 14 8 29 16 NW 1022,8 20 1 -
08.11.2019 18:00:00 10,7 0,2 21 11 33 18 NW 1021,6 20 60 0,0
08.11.2019 17:00:00 11,6 0,0 21 11 37 20 NW 1020,7 20 60 0,0
08.11.2019 16:00:00 12,1 0,2 23 12 39 21 NW 1020,1 20 60 0,0
08.11.2019 15:00:00 12,1 0,4 25 14 38 20 NW 1019,8 20 60 0,0
08.11.2019 14:00:00 11,7 0,9 22 12 37 20 NNW 1020,1 20 60 0,0
08.11.2019 13:00:00 10,9 1,7 24 13 38 21 NNW 1020,7 20 60 -
08.11.2019 12:00:00 10,0 1,7 24 13 38 21 NW 1021,2 20 60 0,0
08.11.2019 11:00:00 8,8 2,9 25 14 37 20 NNW 1021,1 20 60 0,0
08.11.2019 10:00:00 7,6 3,8 22 12 34 18 NW 1021,3 20 60 0,0
08.11.2019 09:00:00 6,0 3,8 22 12 31 17 WNW 1020,7 20 51 0,0
08.11.2019 08:00:00 5,2 3,4 18 10 27 15 W 1020,0 20 0 0,0
08.11.2019 07:00:00 5,3 3,0 15 8 32 17 WNW 1019,5 20 0 -
08.11.2019 06:00:00 6,0 3,8 18 10 26 14 WNW 1018,7 20 0 0,0
08.11.2019 05:00:00 6,8 4,5 18 10 30 16 W 1018,2 20 0 0,0
08.11.2019 04:00:00 6,6 4,8 18 10 29 16 W 1018,4 20 0 0,0
08.11.2019 03:00:00 6,4 4,6 19 10 31 17 W 1018,3 20 0 0,0
08.11.2019 02:00:00 7,0 5,1 19 10 27 15 W 1018,0 20 0 0,0
08.11.2019 01:00:00 6,7 4,5 18 10 26 14 W 1018,4 20 0 -
08.11.2019 00:00:00 7,1 4,3 18 10 27 14 W 1018,9 20 0 0,0
07.11.2019 23:00:00 7,7 4,1 21 11 31 17 WNW 1018,8 20 0 0,0
07.11.2019 22:00:00 - - - - - - - - - - -
07.11.2019 21:00:00 8,5 3,4 19 10 32 18 WNW 1018,0 20 0 0,0
07.11.2019 20:00:00 9,4 3,8 26 14 38 21 WNW 1017,4 20 0 0,0
07.11.2019 19:00:00 9,7 3,0 18 10 34 19 WNW 1017,0 20 0 -
07.11.2019 18:00:00 11,2 2,5 27 15 45 24 WNW 1016,2 20 59 0,0
07.11.2019 17:00:00 12,7 4,1 27 14 46 25 WNW 1015,4 20 60 0,0

tt = temperatuur
td = dauwpunt
ff = windsnelheid
fx = windstoten
dd = windrichting
ppp = luchtdruk
vv = zicht
sd = Zonneschijnduur
rr = neerslag

Weerstations in de omgeving